STARLINK-1355 (45563 NORAD) Tracking and Keplerian Element Data

This shows tracking and keplerian element data for the satellite.

Feedback or suggestion? Click here.




ElementValue
Catalog45563
NameSTARLINK-1355
Epoch Orbit1194
Epoch Day185.50001157
Epoch Year2020
RAAN47.1133
Inclination52.9972
Eccentricity0.0001316
Argument of Perigee59.8451
Mean Anonmoly162.2013
Mean Motion15.62605302
Decay Rate-0.01113611
L11 45563U 20025AJ 20185.50001157 -.01113611 00000-0 -13489-1 0 9999
L22 45563 52.9972 47.1133 0001316 59.8451 162.2013 15.62605302 11941

Live tracking and technical data element details for STARLINK-1355 (NORAD 45563). STARLINK-1355 can be tracked NOW for your location showing map with azimuth and elevation plus other details from your city location.

Track the satellite on the map from your city or location and see movement details for azimuth, elevation, latitude, longitude, range, height, and movement on the map or in text.







IsCatalogInMostPopularTable: catalog: 45563, numindb: 21
Update: records affected: 1



GetName: 45563 STARLINK-1355

Hit Count: updated at: Fri, 03 Jul 2020 17:28:16 GMT